FW9676 Weather Reports


Display with metric or nautical units.
time (UTC)temp
F
wind
direction
speed
MPH
gust
MPH
rain 1hr
in
rain 24hr
in
rain mn
in
humidity
%
barometer
mb
20260902223039 76 267 5.0 13.0 0.00 0.00 0.00 70 1014.7
20260902222519 76 265 5.0 13.0 0.00 0.00 0.00 70 1014.7
20260902222018 77 244 4.0 13.0 0.00 0.00 0.00 70 1014.9
20260902221537 77 265 5.0 12.0 0.00 0.00 0.00 68 1014.9
20260902221018 76 232 5.0 12.0 0.00 0.00 0.00 69 1015.0
20260902220518 77 197 5.0 12.0 0.00 0.00 0.00 68 1015.0
20260902220044 77 194 5.0 12.0 0.00 0.00 0.00 67 1015.0
20260902215517 77 221 4.0 12.0 0.00 0.00 0.00 66 1015.1
20260902215017 77 226 4.0 12.0 0.00 0.00 0.00 65 1015.1
20260902214557 77 275 4.0 12.0 0.00 0.00 0.00 63 1015.2
20260902214019 77 267 6.0 12.0 0.00 0.00 0.00 64 1015.2
20260902213516 77 242 4.0 12.0 0.00 0.00 0.00 66 1015.3
20260902213034 76 262 5.0 12.0 0.00 0.00 0.00 66 1015.3
20260902212516 76 262 3.0 12.0 0.00 0.00 0.00 66 1015.3
20260902212018 76 244 5.0 12.0 0.00 0.00 0.00 65 1015.4
20260902211535 76 269 5.0 13.0 0.00 0.00 0.00 68 1015.4
20260902211021 75 270 5.0 13.0 0.00 0.00 0.00 69 1015.5
20260902210520 75 242 6.0 13.0 0.00 0.00 0.00 69 1015.5
20260902210038 75 270 4.0 11.0 0.00 0.00 0.00 69 1015.5
20260902205522 75 218 5.0 13.0 0.00 0.00 0.00 70 1015.6
20260902205018 75 253 6.0 13.0 0.00 0.00 0.00 68 1015.5
20260902204536 76 212 5.0 13.0 0.00 0.00 0.00 69 1015.6
20260902204019 76 242 5.0 13.0 0.00 0.00 0.00 68 1015.7
20260902203519 76 235 4.0 13.0 0.00 0.00 0.00 67 1015.7
20260902203038 76 215 3.0 13.0 0.00 0.00 0.00 68 1015.6
20260902202516 75 256 6.0 13.0 0.00 0.00 0.00 68 1015.7
20260902202015 75 211 7.0 14.0 0.00 0.00 0.00 67 1015.6
20260902201541 75 256 5.0 14.0 0.00 0.00 0.00 69 1015.7
20260902201018 75 257 5.0 12.0 0.00 0.00 0.00 70 1015.8
20260902200518 76 213 5.0 11.0 0.00 0.00 0.00 70 1015.9
20260902200037 75 258 4.0 11.0 0.00 0.00 0.00 70 1015.9
20260902195521 76 261 5.0 12.0 0.00 0.00 0.00 70 1016.0
20260902195019 76 237 4.0 12.0 0.00 0.00 0.00 70 1016.0
20260902194536 76 232 4.0 12.0 0.00 0.00 0.00 69 1015.9
20260902194016 76 228 5.0 12.0 0.00 0.00 0.00 68 1016.0
20260902193516 76 263 3.0 11.0 0.00 0.00 0.00 69 1016.0
20260902193037 76 242 5.0 11.0 0.00 0.00 0.00 69 1016.1
20260902192519 76 262 6.0 11.0 0.00 0.00 0.00 68 1016.1
20260902192018 75 257 4.0 11.0 0.00 0.00 0.00 70 1016.2
20260902191541 75 217 4.0 11.0 0.00 0.00 0.00 70 1016.3
20260902191021 75 287 4.0 9.0 0.00 0.00 0.00 71 1016.3
20260902190523 75 221 4.0 10.0 0.00 0.00 0.00 71 1016.4
20260902190035 74 264 3.0 10.0 0.00 0.00 0.00 72 1016.4
20260902185519 74 284 5.0 10.0 0.00 0.00 0.00 72 1016.4
20260902185024 75 227 5.0 10.0 0.00 0.00 0.00 72 1016.5
20260902184544 75 238 4.0 12.0 0.00 0.00 0.00 71 1016.4
20260902184023 75 241 5.0 12.0 0.00 0.00 0.00 72 1016.4
20260902183518 75 223 4.0 12.0 0.00 0.00 0.00 72 1016.5
20260902183042 75 242 6.0 12.0 0.00 0.00 0.00 72 1016.5
20260902182516 75 238 5.0 11.0 0.00 0.00 0.00 72 1016.5
20260902182019 75 266 5.0 11.0 0.00 0.00 0.00 72 1016.3
20260902181536 75 238 3.0 9.0 0.00 0.00 0.00 73 1016.4
20260902181018 75 253 4.0 9.0 0.00 0.00 0.00 73 1016.3
20260902180521 75 240 3.0 9.0 0.00 0.00 0.00 73 1016.4
20260902180039 75 281 3.0 9.0 0.00 0.00 0.00 73 1016.4
20260902175519 74 272 3.0 9.0 0.00 0.00 0.00 74 1016.4
20260902175021 74 262 3.0 10.0 0.00 0.00 0.00 74 1016.5
20260902174546 74 246 3.0 10.0 0.00 0.00 0.00 72 1016.5
20260902174019 74 277 4.0 11.0 0.00 0.00 0.00 73 1016.5
20260902173516 74 259 4.0 11.0 0.00 0.00 0.00 73 1016.4
20260902173056 74 301 4.0 9.0 0.00 0.00 0.00 73 1016.4
20260902172521 74 244 3.0 8.0 0.00 0.00 0.00 72 1016.3
20260902172025 75 263 3.0 8.0 0.00 0.00 0.00 73 1016.4
20260902171543 74 264 2.0 8.0 0.00 0.00 0.00 73 1016.3
20260902171025 75 237 1.0 6.0 0.00 0.00 0.00 73 1016.2
20260902170516 75 270 1.0 6.0 0.00 0.00 0.00 72 1016.2
20260902170036 75 288 2.0 6.0 0.00 0.00 0.00 72 1016.2
20260902165520 75 360 1.0 4.0 0.00 0.00 0.00 72 1016.2
20260902165017 75 242 1.0 4.0 0.00 0.00 0.00 72 1016.2
20260902164539 75 286 1.0 5.0 0.00 0.00 0.00 70 1016.3
20260902164019 75 266 1.0 5.0 0.00 0.00 0.00 70 1016.1
20260902163520 75 0 1.0 4.0 0.00 0.00 0.00 70 1016.2
20260902163036 74 130 1.0 4.0 0.00 0.00 0.00 71 1016.2
20260902162517 74 0 0.0 3.0 0.00 0.00 0.00 72 1016.2
20260902162019 74 355 1.0 3.0 0.00 0.00 0.00 72 1016.2
20260902161537 73 0 0.0 5.0 0.00 0.00 0.00 74 1016.2
20260902161019 73 128 0.0 5.0 0.00 0.00 0.00 74 1016.2
20260902160516 73 147 1.0 5.0 0.00 0.00 0.00 75 1016.3
20260902160050 73 146 2.0 5.0 0.00 0.00 0.00 76 1016.2
20260902155522 73 0 1.0 4.0 0.00 0.00 0.00 76 1016.1
20260902155019 72 110 1.0 3.0 0.00 0.00 0.00 77 1016.1
20260902154543 72 86 0.0 3.0 0.00 0.00 0.00 78 1016.1
20260902154020 72 0 1.0 3.0 0.00 0.00 0.00 78 1016.2
20260902153520 71 0 0.0 3.0 0.00 0.00 0.00 79 1016.1
20260902153041 72 57 0.0 4.0 0.00 0.00 0.00 78 1016.1
20260902152519 71 68 0.0 4.0 0.00 0.00 0.00 80 1016.0
20260902152019 71 101 0.0 4.0 0.00 0.00 0.00 81 1016.1
20260902151537 70 161 0.0 2.0 0.00 0.00 0.00 81 1016.1
20260902151019 69 0 0.0 2.0 0.00 0.00 0.00 83 1016.1
20260902150516 68 0 0.0 0.0 0.00 0.00 0.00 85 1016.1
20260902150035 67 0 0.0 0.0 0.00 0.00 0.00 89 1016.2
20260902145518 66 0 0.0 0.0 0.00 0.00 0.00 89 1016.2
20260902145021 65 0 0.0 0.0 0.00 0.00 0.00 91 1016.1
20260902144536 65 0 0.0 0.0 0.00 0.00 0.00 92 1016.1
20260902144019 64 0 0.0 0.0 0.00 0.00 0.00 93 1016.1
20260902143518 63 0 0.0 0.0 0.00 0.00 0.00 93 1016.1
20260902143040 62 0 0.0 0.0 0.00 0.00 0.00 94 1016.1
20260902142523 61 0 0.0 0.0 0.00 0.00 0.00 94 1016.0
20260902142018 60 0 0.0 0.0 0.00 0.00 0.00 94 1015.8
20260902141546 60 0 0.0 0.0 0.00 0.00 0.00 93 1015.8
20260902141019 59 0 0.0 0.0 0.00 0.00 0.00 93 1015.7
20260902140516 59 0 0.0 0.0 0.00 0.00 0.00 94 1015.7
20260902140034 59 0 0.0 0.0 0.00 0.00 0.00 94 1015.7
20260902135515 58 0 0.0 0.0 0.00 0.00 0.00 94 1015.7
20260902135018 58 0 0.0 0.0 0.00 0.00 0.00 93 1015.5
20260902134536 58 0 0.0 0.0 0.00 0.00 0.00 92 1015.5
20260902134023 58 0 0.0 0.0 0.00 0.00 0.00 92 1015.4
20260902133521 58 0 0.0 0.0 0.00 0.00 0.00 92 1015.3
20260902133050 58 0 0.0 0.0 0.00 0.00 0.00 92 1015.4
20260902132522 58 0 0.0 0.0 0.00 0.00 0.00 92 1015.3
20260902132020 58 0 0.0 0.0 0.00 0.00 0.00 92 1015.2
20260902131549 58 0 0.0 0.0 0.00 0.00 0.00 92 1015.2
20260902131022 58 0 0.0 0.0 0.00 0.00 0.00 92 1015.3
20260902130518 58 0 0.0 0.0 0.00 0.00 0.00 92 1015.3
20260902130035 58 0 0.0 0.0 0.00 0.00 0.00 92 1015.2
20260902125521 58 0 0.0 0.0 0.00 0.00 0.00 92 1015.2
20260902125019 58 0 0.0 0.0 0.00 0.00 0.00 92 1015.1
20260902124535 58 0 0.0 0.0 0.00 0.00 0.00 92 1015.1
20260902124023 58 0 0.0 0.0 0.00 0.00 0.00 91 1015.2
20260902123519 58 0 0.0 0.0 0.00 0.00 0.00 91 1015.2
20260902123057 58 0 0.0 0.0 0.00 0.00 0.00 92 1015.3
20260902122520 58 0 0.0 0.0 0.00 0.00 0.00 92 1015.3
20260902122018 58 0 0.0 0.0 0.00 0.00 0.00 92 1015.3
20260902121534 59 0 0.0 0.0 0.00 0.00 0.00 91 1015.4
20260902121016 59 0 0.0 0.0 0.00 0.00 0.00 91 1015.4
20260902120517 59 0 0.0 0.0 0.00 0.00 0.00 91 1015.4
20260902120037 59 0 0.0 0.0 0.00 0.00 0.00 91 1015.4
20260902115616 59 0 0.0 0.0 0.00 0.00 0.00 91 1015.4
20260902115022 59 0 0.0 0.0 0.00 0.00 0.00 91 1015.4
20260902114541 59 0 0.0 0.0 0.00 0.00 0.00 91 1015.4
20260902114020 59 0 0.0 0.0 0.00 0.00 0.00 91 1015.4
20260902113519 59 0 0.0 0.0 0.00 0.00 0.00 91 1015.4
20260902113034 60 0 0.0 0.0 0.00 0.00 0.00 91 1015.4
20260902112519 60 0 0.0 0.0 0.00 0.00 0.00 91 1015.4
20260902112019 60 0 0.0 0.0 0.00 0.00 0.00 91 1015.5
20260902111546 60 0 0.0 0.0 0.00 0.00 0.00 91 1015.5
20260902111017 60 0 0.0 0.0 0.00 0.00 0.00 91 1015.5
20260902110523 60 0 0.0 0.0 0.00 0.00 0.00 90 1015.5
20260902110037 60 0 0.0 0.0 0.00 0.00 0.00 90 1015.5
20260902105522 60 0 0.0 0.0 0.00 0.00 0.00 90 1015.4
20260902105016 60 0 0.0 0.0 0.00 0.00 0.00 90 1015.4
20260902104538 60 0 0.0 0.0 0.00 0.00 0.00 90 1015.4
20260902104018 60 0 0.0 0.0 0.00 0.00 0.00 90 1015.2
20260902103518 61 0 0.0 0.0 0.00 0.00 0.00 90 1015.3
20260902103039 61 0 0.0 0.0 0.00 0.00 0.00 90 1015.3
20260902102521 61 0 0.0 0.0 0.00 0.00 0.00 90 1015.3
20260902102019 61 0 0.0 0.0 0.00 0.00 0.00 90 1015.3
20260902101542 61 0 0.0 0.0 0.00 0.00 0.00 90 1015.2
20260902101018 61 0 0.0 0.0 0.00 0.00 0.00 89 1015.3
20260902100519 61 0 0.0 0.0 0.00 0.00 0.00 89 1015.4
20260902100036 61 0 0.0 0.0 0.00 0.00 0.00 89 1015.5
20260902095519 61 0 0.0 0.0 0.00 0.00 0.00 89 1015.5
20260902095018 61 0 0.0 0.0 0.00 0.00 0.00 89 1015.6
20260902094538 61 0 0.0 0.0 0.00 0.00 0.00 89 1015.6
20260902094023 62 0 0.0 0.0 0.00 0.00 0.00 89 1015.6
20260902093520 62 0 0.0 0.0 0.00 0.00 0.00 89 1015.7
20260902093037 62 0 0.0 0.0 0.00 0.00 0.00 89 1015.5
20260902092517 62 0 0.0 0.0 0.00 0.00 0.00 88 1015.6
20260902092018 62 0 0.0 0.0 0.00 0.00 0.00 89 1015.6
20260902091537 62 0 0.0 0.0 0.00 0.00 0.00 89 1015.5
20260902091024 62 0 0.0 0.0 0.00 0.00 0.00 88 1015.5
20260902090516 62 0 0.0 0.0 0.00 0.00 0.00 88 1015.5
20260902090041 62 0 0.0 0.0 0.00 0.00 0.00 88 1015.6
20260902085518 63 0 0.0 0.0 0.00 0.00 0.00 87 1015.6
20260902085019 63 0 0.0 0.0 0.00 0.00 0.00 88 1015.6
20260902084547 63 0 0.0 0.0 0.00 0.00 0.00 88 1015.7
20260902084018 63 0 0.0 0.0 0.00 0.00 0.00 87 1015.6
20260902083523 63 0 0.0 0.0 0.00 0.00 0.00 87 1015.6
20260902083041 63 0 0.0 1.0 0.00 0.00 0.00 87 1015.6
20260902082520 63 0 0.0 2.0 0.00 0.00 0.00 87 1015.7
20260902082020 64 0 0.0 2.0 0.00 0.00 0.00 88 1015.7
20260902081539 64 0 0.0 0.0 0.00 0.00 0.00 87 1015.7
20260902081017 64 0 0.0 1.0 0.00 0.00 0.00 87 1015.6
20260902080518 64 0 0.0 1.0 0.00 0.00 0.00 87 1015.6
20260902080037 64 0 0.0 1.0 0.00 0.00 0.00 87 1015.6
20260902075519 64 0 0.0 0.0 0.00 0.00 0.00 87 1015.6
20260902075018 64 0 0.0 0.0 0.00 0.00 0.00 87 1015.7
20260902074536 64 0 0.0 0.0 0.00 0.00 0.00 87 1015.7
20260902074021 64 0 0.0 0.0 0.00 0.00 0.00 86 1015.7
20260902073527 64 0 0.0 0.0 0.00 0.00 0.00 86 1015.6
20260902073038 64 0 0.0 0.0 0.00 0.00 0.00 86 1015.5
20260902072519 64 0 0.0 0.0 0.00 0.00 0.00 85 1015.4
20260902072022 64 0 0.0 0.0 0.00 0.00 0.00 86 1015.4
20260902071543 65 0 0.0 0.0 0.00 0.00 0.00 85 1015.3
20260902071017 65 0 0.0 0.0 0.00 0.00 0.00 85 1015.2
20260902070516 65 0 0.0 0.0 0.00 0.00 0.00 85 1015.3
20260902070043 65 0 0.0 0.0 0.00 0.00 0.00 85 1015.3
20260902065518 65 0 0.0 0.0 0.00 0.00 0.00 85 1015.2
20260902065020 65 0 0.0 0.0 0.00 0.00 0.00 84 1015.2
20260902064541 66 0 0.0 2.0 0.00 0.00 0.00 84 1015.2
20260902064019 66 0 0.0 2.0 0.00 0.00 0.00 84 1015.2
20260902063524 66 161 0.0 2.0 0.00 0.00 0.00 84 1015.2
20260902063037 66 0 0.0 2.0 0.00 0.00 0.00 83 1015.2
20260902062520 66 0 0.0 2.0 0.00 0.00 0.00 83 1015.3
20260902062019 67 0 0.0 1.0 0.00 0.00 0.00 83 1015.4
20260902061541 67 0 0.0 2.0 0.00 0.00 0.00 83 1015.3
20260902061022 67 0 0.0 2.0 0.00 0.00 0.00 82 1015.3
20260902060519 67 194 0.0 4.0 0.00 0.00 0.00 82 1015.3
20260902060040 68 0 0.0 5.0 0.00 0.00 0.00 82 1015.3
20260902055522 68 0 1.0 5.0 0.00 0.00 0.00 82 1015.2
20260902055018 68 182 0.0 4.0 0.00 0.00 0.00 82 1015.2
20260902054536 68 0 0.0 4.0 0.00 0.00 0.00 82 1015.1
20260902054019 68 221 1.0 4.0 0.00 0.00 0.00 83 1015.1
20260902053519 68 0 0.0 4.0 0.00 0.00 0.00 82 1015.1
20260902053036 68 0 0.0 4.0 0.00 0.00 0.00 82 1015.1
20260902052523 68 0 0.0 3.0 0.00 0.00 0.00 82 1015.1
20260902052021 68 245 0.0 6.0 0.00 0.00 0.00 81 1015.1
20260902051537 68 0 0.0 8.0 0.00 0.00 0.00 81 1015.2
20260902051019 68 239 1.0 8.0 0.00 0.00 0.00 81 1015.2
20260902050519 68 205 2.0 6.0 0.00 0.00 0.00 81 1015.1
20260902050039 68 229 1.0 7.0 0.00 0.00 0.00 81 1015.2
20260902045520 69 232 2.0 8.0 0.00 0.00 0.00 81 1015.0
20260902045016 68 261 3.0 8.0 0.00 0.00 0.00 81 1015.1
20260902044539 68 241 1.0 9.0 0.00 0.00 0.00 80 1015.1
20260902044020 68 269 3.0 9.0 0.00 0.00 0.00 79 1014.9
20260902043519 68 263 0.0 5.0 0.00 0.00 0.00 78 1014.8
20260902043041 68 229 1.0 5.0 0.00 0.00 0.00 78 1014.9
20260902042518 68 267 2.0 9.0 0.00 0.00 0.00 79 1014.8
20260902042021 68 217 2.0 9.0 0.00 0.00 0.00 79 1014.8
20260902041549 68 268 3.0 7.0 0.00 0.00 0.00 79 1014.7
20260902041019 68 281 2.0 7.0 0.00 0.00 0.00 78 1014.7
20260902040516 68 0 2.0 7.0 0.00 0.00 0.00 78 1014.5
20260902040039 68 0 2.0 7.0 0.00 0.00 0.00 77 1014.4
20260902035520 68 268 3.0 7.0 0.00 0.00 0.00 78 1014.4
20260902035015 68 306 1.0 10.0 0.00 0.00 0.00 79 1014.3
20260902034537 68 0 2.0 10.0 0.00 0.00 0.00 78 1014.2
20260902034018 68 270 4.0 10.0 0.00 0.00 0.00 78 1014.2
20260902033518 68 263 2.0 10.0 0.00 0.00 0.00 80 1014.1
20260902033035 68 265 2.0 9.0 0.00 0.00 0.00 80 1014.0
20260902032520 68 253 3.0 9.0 0.00 0.00 0.00 80 1014.0
20260902032025 69 244 3.0 10.0 0.00 0.00 0.00 80 1014.0
20260902031537 68 252 3.0 10.0 0.00 0.00 0.00 80 1013.9
20260902031019 68 266 3.0 9.0 0.00 0.00 0.00 80 1013.9
20260902030522 68 261 3.0 11.0 0.00 0.00 0.00 80 1014.0
20260902030035 68 265 4.0 11.0 0.00 0.00 0.00 80 1014.0
20260902025518 68 250 3.0 10.0 0.00 0.00 0.00 81 1013.9
20260902025018 68 252 3.0 10.0 0.00 0.00 0.00 81 1013.9
20260902024537 68 270 2.0 9.0 0.00 0.00 0.00 82 1013.9
20260902024022 69 258 3.0 12.0 0.00 0.00 0.00 82 1013.8
20260902023519 69 257 4.0 12.0 0.00 0.00 0.00 83 1013.8
20260902023035 69 221 3.0 10.0 0.00 0.00 0.00 82 1013.7
20260902022524 69 275 3.0 10.0 0.00 0.00 0.00 81 1013.6
20260902022018 69 244 3.0 9.0 0.00 0.00 0.00 81 1013.6
20260902021534 69 249 3.0 9.0 0.00 0.00 0.00 81 1013.7
20260902021019 69 269 3.0 9.0 0.00 0.00 0.00 80 1013.6
20260902020519 70 0 2.0 10.0 0.00 0.00 0.00 79 1013.6
20260902020049 70 240 3.0 10.0 0.00 0.00 0.00 79 1013.6
20260902015519 71 261 4.0 10.0 0.00 0.00 0.00 78 1013.6
20260902015020 71 254 3.0 8.0 0.00 0.00 0.00 78 1013.5
20260902014537 71 265 2.0 8.0 0.00 0.00 0.00 79 1013.5
20260902014020 71 252 3.0 9.0 0.00 0.00 0.00 79 1013.6
20260902013519 71 261 3.0 9.0 0.00 0.00 0.00 79 1013.5
20260902013037 71 235 2.0 10.0 0.00 0.00 0.00 79 1013.6
20260902012518 71 226 3.0 10.0 0.00 0.00 0.00 79 1013.6
20260902012018 71 252 3.0 12.0 0.00 0.00 0.00 79 1013.7
20260902011535 71 0 1.0 12.0 0.00 0.00 0.00 79 1013.6
20260902011018 71 244 5.0 11.0 0.00 0.00 0.00 78 1013.7
20260902010515 72 254 4.0 10.0 0.00 0.00 0.00 78 1013.7
20260902010036 72 268 4.0 10.0 0.00 0.00 0.00 77 1013.8
20260902005523 72 219 5.0 9.0 0.00 0.00 0.00 76 1013.8
20260902005020 72 265 4.0 11.0 0.00 0.00 0.00 77 1013.8
20260902004538 73 246 4.0 13.0 0.00 0.00 0.00 76 1013.7
20260902004029 73 238 5.0 13.0 0.00 0.00 0.00 76 1013.9
20260902003520 73 240 5.0 13.0 0.00 0.00 0.00 76 1013.9
20260902003040 73 271 4.0 12.0 0.00 0.00 0.00 76 1013.9
20260902002518 73 252 5.0 12.0 0.00 0.00 0.00 77 1013.8
20260902002016 73 240 6.0 14.0 0.00 0.00 0.00 76 1013.9
20260902001535 73 258 5.0 14.0 0.00 0.00 0.00 76 1014.0
20260902001015 73 280 6.0 14.0 0.00 0.00 0.00 76 1014.0
20260902000516 73 286 5.0 12.0 0.00 0.00 0.00 76 1014.0
20260902000035 73 194 4.0 12.0 0.00 0.00 0.00 76 1014.0
20260901235520 73 263 6.0 15.0 0.00 0.00 0.00 75 1014.1
20260901235018 73 237 5.0 15.0 0.00 0.00 0.00 75 1014.0
20260901234540 74 278 5.0 11.0 0.00 0.00 0.00 75 1014.1
20260901234020 73 255 4.0 13.0 0.00 0.00 0.00 75 1014.1
20260901233524 73 275 6.0 13.0 0.00 0.00 0.00 75 1014.1
20260901233034 73 273 6.0 15.0 0.00 0.00 0.00 75 1014.0
20260901232519 74 262 6.0 16.0 0.00 0.00 0.00 75 1014.1
20260901232020 73 248 5.0 16.0 0.00 0.00 0.00 76 1014.0
20260901231542 73 168 7.0 17.0 0.00 0.00 0.00 75 1014.2
20260901231018 74 269 5.0 17.0 0.00 0.00 0.00 74 1014.2
20260901230517 74 271 8.0 16.0 0.00 0.00 0.00 75 1014.1
20260901230049 74 286 5.0 15.0 0.00 0.00 0.00 75 1014.1
20260901225519 74 216 7.0 15.0 0.00 0.00 0.00 76 1014.1
20260901225021 74 222 7.0 15.0 0.00 0.00 0.00 75 1014.2
20260901224538 74 257 7.0 16.0 0.00 0.00 0.00 75 1014.2
20260901224019 74 270 8.0 18.0 0.00 0.00 0.00 74 1014.2
20260901223520 75 259 5.0 18.0 0.00 0.00 0.00 74 1014.2